Flag for Aruba Weather past 2 weeks in Oranjestad, Aruba

Now
88 °F

Scattered clouds.


Feels Like: 100 °F
Forecast: 81 / 88 °F
Wind: 26 mph from East

Location: Queen Beatrix Airport - Aruba

Current Time: Jul 2, 2015 at 1:22:05 PM

Latest Report: Jul 2, 2015 at 12:00 PM


Visibility: N/A

Pressure: 29.95 "Hg

Humidity: 70%

Dew point: 77 °F

Location of OranjestadLocation

Historic Weather in Oranjestad — Graph

°F

Oranjestad temperature yesterday

Maximum temperature yesterday: 88 °F (at 12:00 PM)
Minimum temperature yesterday: 81 °F (at 12:00 AM)
Average temperature yesterday: 83 °F

Past Weeks' High & Low Weather Summary

 TemperatureHumidityPressure
High91 °F (Jun 24, 2:00 PM)100% (Jun 21, 7:00 PM)29.98 "Hg (Jun 21, 7:00 PM)
Low36 °F (Jun 21, 7:00 PM)67% (Jun 20, 12:00 PM)29.83 "Hg (Jun 17, 4:00 PM)
Average83 °F80%29.93 "Hg
* Reported Jun 17 12:00 Noon — Jul 2 12:00 Noon, Oranjestad, Weather by CustomWeather, © 2015

Note: Actual official high and low records may vary slightly from our data, if they occured in-between our weather recording intervals... More about our weather records

Advertising

Oranjestad weather history for previous 24 hours

 ConditionsComfort  
Time TempWeatherWind HumidityBarometerVisibility
12:00 PM
Thu, Jul 2
88 °FScattered clouds.26 mph70%29.95 "HgN/A
11:00 AM88 °FScattered clouds.25 mph70%29.95 "HgN/A
10:00 AM86 °FPassing clouds.26 mph75%29.95 "HgN/A
9:00 AM84 °FPassing clouds.23 mph79%29.95 "HgN/A
8:00 AM82 °FPassing clouds.22 mph79%29.95 "HgN/A
7:00 AM81 °FPassing clouds.20 mph84%29.92 "HgN/A
6:00 AM81 °FPassing clouds.18 mph84%29.92 "HgN/A
5:00 AM81 °FPassing clouds.18 mph84%29.92 "HgN/A
4:00 AM81 °FPassing clouds.20 mph84%29.89 "HgN/A
3:00 AM81 °FPassing clouds.23 mph84%29.92 "HgN/A
2:00 AM81 °FPassing clouds.20 mph84%29.92 "HgN/A
1:00 AM81 °FPassing clouds.17 mph84%29.92 "HgN/A
12:00 AM81 °FWarm.17 mph84%29.95 "HgN/A
11:00 PM
Wed, Jul 1
81 °FPassing clouds.18 mph84%29.95 "HgN/A
10:00 PM82 °FPassing clouds.22 mph84%29.95 "HgN/A
9:00 PM82 °FPassing clouds.24 mph84%29.92 "HgN/A
8:00 PM82 °FPassing clouds.22 mph84%29.89 "HgN/A
7:00 PM82 °FPassing clouds.24 mph84%29.89 "HgN/A
6:00 PM84 °FWarm.26 mph79%29.86 "HgN/A
5:00 PM86 °FPassing clouds.22 mph79%29.86 "HgN/A
4:00 PM86 °FPassing clouds.22 mph79%29.89 "HgN/A
3:00 PM88 °FScattered clouds.23 mph75%29.89 "HgN/A
2:00 PM88 °FScattered clouds.22 mph75%29.92 "HgN/A
1:00 PM88 °FScattered showers. Partly sunny.22 mph75%29.95 "HgN/A
Weather by CustomWeather, © 2015

See weather overviewHow to use our weather pages